Location: Montreal
(45.5000°N, 73.5833°W)
Time: 08:52:00
(UTC-05:00)

Vanguard 1 - Pass Details

Date: 21 October 2017
Orbit: 650 x 3834 km, 34.2° (Epoch: 17 November)

Event Time Altitude Azimuth Distance (km) Brightness Sun altitude
Rises 01:28:11 0° 236° (SW) 5,187 - -53.7°
Reaches altitude 10° 01:31:07 10° 231° (SW) 4,535 - -53.5°
Maximum altitude 01:44:16 52° 160° (SSE) 3,489 - -52.6°
Exits shadow 01:50:13 43° 120° (ESE) 4,176 13.0 -52.1°
Drops below altitude 10° 02:05:07 10° 93° (E) 6,896 14.5 -50.7°
Sets 02:10:54 0° 90° (E) 7,978 15.0 -50.1°
